Change the Weather History Date:

Wednesday, November 6, 2013

  Actual Average Record
Temperature  
Mean Temperature 30 °F 35 °F  
Max Temperature 35 °F 44 °F 62 °F (1931)
Min Temperature 24 °F 26 °F 6 °F (2003)
Degree Days  
Heating Degree Days 35 30  
Month to date heating degree days 194 175  
Since 1 July heating degree days 1260 1383  
Cooling Degree Days 0 0  
Month to date cooling degree days 0 0  
Year to date cooling degree days 264 147  
Moisture  
Dew Point 28 °F    
Average Humidity 91    
Maximum Humidity 100    
Minimum Humidity 82    
Precipitation  
Precipitation 0.06 in 0.05 in 0.43 in (2006)
Month to date precipitation 0.63 0.27  
Year to date precipitation 13.99 14.27  
Snow  
Snow 2.50 in - - ()
Month to date snowfall 7.0  
Year to date snowfall 17.1  
Since 1 July snowfall 7.0  
Snow Depth 3.00 in    
Sea Level Pressure  
Sea Level Pressure 30.26 in    
Wind  
Wind Speed 1 mph (West)    
Max Wind Speed 24 mph    
Max Gust Speed 84 mph    
Visibility 4 miles    
Events Fog , Snow    
T = Trace of Precipitation, MM = Missing Value Source: NWS Daily Summary

Daily Weather History Graph

Daily Weather History Graph

Search for Another Location

Airport or City:

Trip Planner

Search our weather history database for the weather conditions in past years. The results will help you decide how hot, cold, wet, or windy it might be!

Date:

Astronomy

Nov. 06, 2013 Rise Set
Actual Time 7:30 AM MST 5:09 PM MST
Civil Twilight 6:57 AM MST 5:42 PM MST
Nautical Twilight 6:20 AM MST 6:20 PM MST
Astronomical Twilight 5:44 AM MST 6:56 PM MST
Moon 10:56 AM MST (11/6) 8:12 PM MST (11/6)
Length of Visible Light 10h 45m
Length of Day
9h 38m
Waxing Crescent, 14% of the Moon is Illuminated
Nov 6
Waxing Crescent
Nov 9
First Quarter
Nov 17
Full
Nov 25
Last Quarter
Dec 2
New

Hourly Weather History & Observations

Time (MST) Temp. Windchill Dew Point Humidity Pressure Visibility Wind Dir Wind Speed Gust Speed Precip Events Conditions
12:06 AM 30.2 °F 26.7 °F 28.4 °F 93% 30.10 in 4.0 mi SW 3.5 mph - 0.01 in Snow Light Snow
12:20 AM 30.2 °F - 28.4 °F 93% 30.10 in 1.8 mi North - - 0.01 in Snow Light Snow
12:38 AM 30.2 °F 26.7 °F 28.4 °F 93% 30.11 in 3.0 mi West 3.5 mph - 0.01 in Snow Light Snow
12:55 AM 30.9 °F - 28.9 °F 92% 30.18 in 3.0 mi Calm Calm - 0.02 in Snow Light Snow
1:02 AM 30.2 °F - 28.4 °F 93% 30.11 in 2.5 mi Calm Calm - 0.00 in Snow Light Snow
1:21 AM 30.2 °F - 28.4 °F 93% 30.11 in 1.2 mi Calm Calm - 0.01 in Snow Light Snow
1:35 AM 30.2 °F - 28.4 °F 93% 30.11 in 0.8 mi Calm Calm - 0.02 in Snow Light Snow
1:49 AM 30.2 °F - 28.4 °F 93% 30.11 in 1.0 mi Calm Calm - 0.04 in Snow Light Snow
1:55 AM 30.9 °F - 30.0 °F 96% 30.19 in 1.2 mi Calm Calm - 0.04 in Snow Light Snow
2:03 AM 30.2 °F - 30.2 °F 100% 30.11 in 1.5 mi Calm Calm - 0.00 in Snow Light Snow
2:12 AM 30.2 °F - 28.4 °F 93% 30.11 in 2.5 mi Calm Calm - 0.01 in Snow Light Snow
2:28 AM 30.2 °F - 28.4 °F 93% 30.12 in 2.5 mi Calm Calm - 0.01 in Snow Light Snow
2:38 AM 30.2 °F - 28.4 °F 93% 30.12 in 3.0 mi Calm Calm - 0.01 in Snow Light Snow
2:55 AM 30.0 °F - 28.0 °F 92% 30.20 in 3.0 mi Calm Calm - 0.01 in Snow Light Snow
3:42 AM 30.2 °F - 28.4 °F 93% 30.13 in 2.5 mi Calm Calm - 0.00 in Snow Light Snow
3:52 AM 30.2 °F - 28.4 °F 93% 30.13 in 4.0 mi Calm Calm - 0.00 in Snow Light Snow
3:55 AM 30.0 °F - 28.0 °F 92% 30.21 in 4.0 mi Calm Calm - 0.00 in Snow Light Snow
4:37 AM 30.2 °F - 28.4 °F 93% 30.14 in 4.0 mi Calm Calm - 0.00 in Snow Light Snow
4:55 AM 28.9 °F - 28.0 °F 96% 30.24 in 2.0 mi Calm Calm - 0.00 in Snow Light Snow
4:58 AM 28.4 °F - 28.4 °F 100% 30.15 in 1.0 mi Calm Calm - 0.00 in Snow Light Snow
5:06 AM 28.4 °F - 28.4 °F 100% 30.15 in 0.5 mi Calm Calm - 0.00 in Fog , Snow Light Snow
5:31 AM 26.6 °F - 26.6 °F 100% 30.16 in 1.5 mi Calm Calm - 0.00 in   Overcast
5:35 AM 26.6 °F - 26.6 °F 100% 30.16 in 3.0 mi Calm Calm - 0.00 in   Overcast
5:55 AM 28.0 °F 24.2 °F 26.1 °F 92% 30.25 in 5.0 mi SSW 3.5 mph - 0.00 in   Overcast
6:43 AM 28.4 °F - 26.6 °F 93% 30.18 in 9.0 mi Calm Calm - N/A   Overcast
6:55 AM 28.0 °F - 27.0 °F 96% 30.28 in 7.0 mi Calm Calm - N/A   Overcast
7:55 AM 28.0 °F - 27.0 °F 96% 30.30 in 5.0 mi Calm Calm - N/A   Overcast
8:55 AM 28.9 °F - 27.0 °F 92% 30.33 in 6.0 mi Calm Calm - N/A   Overcast
9:55 AM 30.0 °F - 28.0 °F 92% 30.35 in 10.0 mi Calm Calm - N/A   Overcast
10:55 AM 30.9 °F - 28.0 °F 89% 30.38 in 7.0 mi Calm Calm - N/A   Overcast
11:55 AM 34.0 °F - 28.9 °F 82% 30.37 in 10.0 mi Calm Calm - N/A   Overcast
12:55 PM 34.0 °F - 30.0 °F 85% 30.38 in 7.0 mi Calm Calm - N/A   Overcast
1:55 PM 34.0 °F - 30.9 °F 89% 30.38 in 9.0 mi Calm Calm - N/A   Overcast
2:55 PM 35.1 °F 32.2 °F 30.9 °F 85% 30.38 in 9.0 mi North 3.5 mph - N/A   Overcast
3:55 PM 34.0 °F - 32.0 °F 92% 30.39 in 7.0 mi Calm Calm - N/A   Overcast
4:55 PM 33.1 °F 30.0 °F 30.9 °F 92% 30.40 in 4.0 mi North 3.5 mph - N/A   Overcast
5:55 PM 30.0 °F - 28.9 °F 96% 30.40 in 10.0 mi Calm Calm - N/A   Overcast
6:11 PM 30.2 °F - 28.4 °F 93% 30.31 in 10.0 mi Calm Calm - N/A   Overcast
6:55 PM 26.1 °F - 25.0 °F 96% 30.43 in 10.0 mi Calm Calm - N/A   Mostly Cloudy
7:41 PM 24.8 °F 20.5 °F 23.0 °F 93% 30.32 in 0.8 mi North 3.5 mph - N/A   Overcast
7:55 PM 25.0 °F 20.7 °F 24.1 °F 96% 30.42 in 0.8 mi Variable 3.5 mph - N/A   Overcast
8:18 PM 28.4 °F - 26.6 °F 93% 30.32 in 1.8 mi Calm Calm - N/A   Overcast
8:20 PM 28.4 °F - 26.6 °F 93% 30.32 in 3.0 mi Calm Calm - N/A   Overcast
8:33 PM 28.4 °F - 28.4 °F 100% 30.32 in 1.8 mi Calm Calm - N/A   Overcast
8:44 PM 28.4 °F 24.6 °F 26.6 °F 93% 30.32 in 3.0 mi West 3.5 mph - N/A   Overcast
8:55 PM 28.9 °F - 28.0 °F 96% 30.42 in 5.0 mi Calm Calm - N/A   Overcast
9:03 PM 28.4 °F 24.6 °F 26.6 °F 93% 30.32 in 6.0 mi South 3.5 mph - N/A   Overcast
9:10 PM 28.4 °F - 26.6 °F 93% 30.32 in 2.5 mi Calm Calm - N/A   Overcast
9:12 PM 28.4 °F 24.6 °F 26.6 °F 93% 30.32 in 1.2 mi SE 3.5 mph - N/A   Overcast
9:30 PM 28.4 °F - 26.6 °F 93% 30.33 in 2.0 mi Calm Calm - N/A   Overcast
9:40 PM 28.4 °F - 28.4 °F 100% 30.33 in 3.0 mi Calm Calm - N/A   Overcast
9:55 PM 28.9 °F - 27.0 °F 92% 30.43 in 4.0 mi Calm Calm - N/A   Overcast
10:22 PM 28.4 °F - 28.4 °F 100% 30.33 in 1.8 mi Calm Calm - N/A   Overcast
10:29 PM 28.4 °F - 28.4 °F 100% 30.33 in 0.8 mi Calm Calm - N/A   Mist
10:36 PM 28.4 °F - 28.4 °F 100% 30.33 in 0.2 mi Calm Calm - N/A Fog Light Freezing Fog
10:55 PM 28.9 °F - 28.0 °F 96% 30.42 in 0.2 mi Calm Calm - N/A Fog Light Freezing Fog
11:55 PM 27.0 °F - 26.1 °F 96% 30.40 in 0.2 mi Calm Calm - N/A Fog Light Freezing Fog